Location: *
(40.7190°N, 4.2480°W)
Time: 19:26:01
(UTC+00:00)

Gbstr 26 Del rocket - Pass Details

Date: 18 February 2020
Orbit: 493 x 1264 km, 51.8° (Epoch: 05 April)

Event Time Altitude Azimuth Distance (km) Brightness Sun altitude
Exits shadow 04:43:04 57° 219° (SW) 1,334 4.4 -28.0°
Drops below altitude 10° 04:50:39 10° 148° (SSE) 3,203 6.9 -26.6°
Sets 04:53:38 0° 145° (SE) 4,197 7.7 -26.1°
